Regional Weather Roundup
Issued by NWS

Home | Current Version | Previous Version | Graphics & Text | Print | Product List | Glossary On
Versions: 1 2 3 4 5 6 7 8 9 10 11 12 13 14 15 16 17 18 19 20 21 22 23 24 25 26 27 28 29 30 31 32 33 34 35 36 37 38 39 40 41 42 43 44 45 46 47 48 49 50
000
ASUS43 KMPX 190310
RWRMN
WEATHER ROUNDUP FOR MINNESOTA
NATIONAL WEATHER SERVICE TWIN CITIES/CHANHASSEN MN
1000 PM CDT THU SEP 18 2014


NOTE: "FAIR" INDICATES FEW OR NO CLOUDS BELOW 12,000 FEET WITH NO
SIGNIFICANT WEATHER AND/OR OBSTRUCTIONS TO VISIBILITY. N/A MEANS
CURRENT SKY AND/OR WEATHER CONDITIONS ARE NOT AVAILABLE.

MNZ060>063-068>070-190400-
   Twin Cities Metro

CITY           SKY/WX    TMP DP  RH WIND       PRES   REMARKS
TWIN CITIES    MOCLDY    62  54  74 SE13      29.99F
ST PAUL        CLEAR     62  57  83 SE10      30.00F
CRYSTAL        CLEAR     65  55  70 SE13      29.97F
BLAINE         CLEAR     64  57  77 SE9       29.99S
LAKEVILLE      CLEAR     57  52  82 SE6       30.00F
EDEN PRAIRIE   CLEAR     64  53  67 S12       29.97F
SOUTH ST PAUL  CLEAR     63  56  80 SE7       30.00S
LAKE ELMO      FAIR      61  55  82 SE9       30.02S
$$
MNZ001>005-007-008-013>017-022>024-027-028-190400-
   Northwest Minnesota

CITY           SKY/WX    TMP DP  RH WIND       PRES   REMARKS
BEMIDJI        PTCLDY    56  53  89 SE15      29.86F
HALLOCK        MOCLDY    66  57  72 S20       29.66F
ROSEAU         CLOUDY    63  55  77 S18G25    29.73S
WARROAD        CLOUDY    61  55  82 S14G23    29.75S
THIEF RVR FALL MOCLDY    64  55  72 S15       29.77R
CROOKSTON      MOCLDY    66  57  72 S18G24    29.75S
FOSSTON        MOCLDY    63  54  72 S15G21    29.80F
DETROIT LAKES  PTCLDY    63  55  77 S13       29.84F
MOORHEAD       MOCLDY    68  59  73 S13G18    29.79F
PARK RAPIDS    PTCLDY    59  55  87 SE13      29.88F
MAHNOMEN       FAIR      64  56  73 S14G21    29.81S
$$
MNZ006-009>011-018-025>026-190400-
   North Central Minnesota

CITY           SKY/WX    TMP DP  RH WIND       PRES   REMARKS
BAUDETTE       PTCLDY    57  52  83 S9        29.79F
FLAG ISLAND    MOCLDY    59  54  82 S23       29.73F
INTL FALLS     MOCLDY    52  48  86 SE8G18    29.87F
WASKISH        FAIR      57  54  88 SE6       29.83F
BIG FORK       CLOUDY    54  48  82 S9        29.92F
LONGVILLE      PTCLDY    55  54  94 SE10G16   29.91F
GRAND RAPIDS   CLOUDY    48  45  87 SE15      29.95S
CRANE LAKE     CLOUDY    48  46  93 S7        29.96S
ORR            CLOUDY    48  45  87 S10       29.92F
COOK           CLOUDY    48  46  93 SE6       29.96F
WALKER         FAIR      57  54  88 SE6       29.90S
$$
MNZ012-019>021-037-190400-
   Northeast Minnesota

CITY           SKY/WX    TMP DP  RH WIND       PRES   REMARKS
DULUTH         CLOUDY    47  45  93 SE13      30.01F FOG
ELY            CLOUDY    45  43  93 S6        29.99F FOG
HIBBING        CLOUDY    48  46  93 SE8       29.98F
EVELETH        CLOUDY    45  45 100 SE7       29.99F FOG
DULUTH HARBOR  MOCLDY    52  48  87 E10       30.03F
TWO HARBORS    CLOUDY    45  39  81 NE8       30.02F
SILVER BAY     CLOUDY    43  43 100 NE5       30.03F
GRAND MARAIS     N/A     47  40  76 NE5       30.08F
G MARAIS ARPRT CLOUDY    39  36  87 SE5       30.06F FOG
$$
MNZ029>031-032-039>041-046>048-054>057-064-190400-
   West Central Minnesota

CITY           SKY/WX    TMP DP  RH WIND       PRES   REMARKS
FERGUS FALLS   MOCLDY    64  52  63 S15       29.84F
WHEATON        PTCLDY    63  54  72 SE14G20   29.85R
MORRIS         PTCLDY    64  54  68 SE13      29.86S
ALEXANDRIA     PTCLDY    63  51  65 S15       29.91R
ELBOW LAKE     FAIR      63  53  71 S16       29.86S
WADENA         CLEAR     61  54  77 SE5       29.90R
GLENWOOD       CLEAR     61  54  77 SE9       29.91S
APPLETON       PTCLDY    66  52  59 S9        29.88R
BENSON         PTCLDY    63  54  72 S12       29.90R
ORTONVILLE     PTCLDY    64  54  68 S9        29.86S
MADISON        PTCLDY    64  55  72 S12       29.88S
WILLMAR        FAIR      63  50  63 SE9       29.93F
$$
MNZ033>034-036-042>043-049>051-058-059-190400-
   Central Minnesota

CITY           SKY/WX    TMP DP  RH WIND       PRES   REMARKS
ST CLOUD       CLEAR     63  53  70 SE12      29.94F
SAUK CENTRE    FAIR      60  52  77 SE7       29.91F
PAYNESVILLE    CLEAR     60  52  74 E8        29.93F
AITKIN         PTCLDY    59  54  82 SE7       29.94S
PINE RIVER     CLEAR     55  54  94 SE7       29.95S
BRAINERD       CLEAR     58  55  90 SE8       29.94S
STAPLES        PTCLDY    61  54  77 SE7       29.91S
LONG PRAIRIE   FAIR      61  52  72 SE12      29.91F
LITTLE FALLS   CLEAR     59  54  82 SE8       29.93F
LITCHFIELD     CLEAR     64  52  63 SE7       29.95S
BUFFALO        CLEAR     64  52  65 SE7       29.97F
MAPLE LAKE     CLEAR     63  55  76 SE6       29.97S
$$
MNZ037-044-045-052-053-190400-
   East Central Minnesota

CITY           SKY/WX    TMP DP  RH WIND       PRES   REMARKS
PRINCETON      PTCLDY    63  57  82 SE7       29.97S
MORA           PTCLDY    55  52  88 SE6       29.99F
CAMBRIDGE      PTCLDY    63  54  72 SE7       29.96S
RUSH CITY      MOCLDY    57  54  89 SE7       29.99F
MOOSE LAKE     CLEAR     46  45  93 NE3       29.98F
HINCKLEY       FAIR      55  54  94 SE6       29.99F
CLOQUET        CLOUDY    46  45  93 E7        30.01F FOG
MCGREGOR       PTCLDY    48  46  93 SE8       29.98R
$$
MNZ071>073-080-081-089-090-097-098-190400-
   Southwest Minnesota

CITY           SKY/WX    TMP DP  RH WIND       PRES   REMARKS
MONTEVIDEO     PTCLDY    64  52  63 S10       29.91S
GRANITE FALLS  PTCLDY    63  52  67 SE10      29.92F
CANBY          CLOUDY    63  55  77 S8        29.90S
MARSHALL       PTCLDY    63  48  59 S13       29.91S
REDWOOD FALLS  CLEAR     61  50  67 S15       29.93F
OLIVIA         CLEAR     61  50  67 S10       29.92F
PIPESTONE      PTCLDY    61  54  77 S10       29.94S
WINDOM         CLEAR     61  50  67 SE12      29.97F
WORTHINGTON    PTCLDY    61  52  72 S12       29.97F
JACKSON        PTCLDY    61  46  59 SE12      29.99F
TRACY          PTCLDY    63  52  67 S13       29.94F
SLAYTON        MOCLDY    59  53  79 CALM      29.96S
$$
MNZ065>067-074>077-082>085-091>093-190400-
   South Central Minnesota

CITY           SKY/WX    TMP DP  RH WIND       PRES   REMARKS
MANKATO        CLEAR     63  50  63 S12       29.99S
NEW ULM        CLEAR     59  50  72 S9        29.97S
ST JAMES       CLEAR     61  48  63 SE8       29.99F
FAIRMONT       CLEAR     57  43  58 S8        30.00S
GLENCOE        CLEAR     63  51  64 SE7       29.97S
FARIBAULT      CLEAR     64  50  59 SE9       30.01F
OWATONNA       CLEAR     61  52  72 SE9       30.02F
WASECA         CLEAR     59  48  67 SE8       30.03F
ALBERT LEA     PTCLDY    63  54  72 S10       30.03F
$$
MNZ078>079-086>088-094>096-190400-
   Southeast Minnesota

CITY           SKY/WX    TMP DP  RH WIND       PRES   REMARKS
ROCHESTER      CLEAR     56  53  90 SE8       30.07S
RED WING       CLEAR     63  55  77 SE10      30.02F
STANTON        CLEAR     62  52  69 SE7       30.00F
DODGE CENTER   CLEAR     55  52  88 SE7       30.04F
WINONA         CLEAR     59  55  88 S5        30.08R
AUSTIN           N/A     57  52  82 SE6       30.05S
PRESTON        CLEAR     58  56  94 SE7       30.09R
$$
ABBREVIATIONS USED IN REMARKS
   TC - TEMPERATURES IN CELSIUS
  WCI - WIND CHILL INDEX
   HX - HEAT INDEX
  VSB - VISIBILITY
$$


USA.gov is the U.S. government's official web portal to all federal, state and local government web resources and services.